Simultaneous Nadir Overpasses (SNOs) Predictions

Prediction of SNOs near equator between AQUA and NPP Satellite Orbit:

Table of predicted SNOs near equator for the next 14.0 days since TLE Epoch: 9/22/2014
Index Date (AQUA) Time (AQUA) AQUA Lat,Lon Date (NPP) Time (NPP) NPP Lat,Lon Distance(km) Time Diff (sec)
1 09/23/2014 20:58:28 29.94,-115.46 09/23/2014 20:52:01 30.11,-114.74 72.04 387
2 09/23/2014 21:47:51 -29.96, 52.19 09/23/2014 21:42:41 -30.06, 52.61 41.49 310
3 09/23/2014 22:37:22 30.00,-140.20 09/23/2014 22:33:29 30.00,-140.08 11.04 233
4 09/23/2014 23:22:29 -14.62, 31.13 09/23/2014 23:19:47 -14.62, 31.12 0.64 162
5 09/24/2014 00:03:58 -14.49,-154.97 09/24/2014 00:02:21 -14.49,-154.96 1.05 97
6 09/24/2014 00:49:29 28.43, 15.98 09/24/2014 00:49:03 28.48, 15.86 12.99 26
7 09/24/2014 01:38:35 -29.90,-176.02 09/24/2014 01:39:26 -29.99,-176.43 41.19 51
8 09/24/2014 02:27:58 29.88, -8.37 09/24/2014 02:30:06 30.05, -9.09 71.82 128
9 09/26/2014 12:25:28 -29.95,-167.21 09/26/2014 12:18:09 -30.16,-166.28 93.15 439
10 09/26/2014 13:14:59 29.99, 0.40 09/26/2014 13:08:57 30.10, 1.04 62.46 362
11 09/26/2014 14:04:21 -29.94, 168.07 09/26/2014 13:59:36 -29.99, 168.40 32.11 285
12 09/26/2014 14:53:52 29.98, -24.32 09/26/2014 14:50:25 29.99, -24.31 1.48 207
13 09/26/2014 15:36:40 -6.21, 148.83 09/26/2014 15:34:20 -6.21, 148.83 0.92 140
14 09/26/2014 16:18:10 -22.82, -37.18 09/26/2014 16:16:55 -22.82, -37.17 1.38 75
15 09/26/2014 17:05:35 29.89, 132.23 09/26/2014 17:05:34 29.95, 132.03 20.18 1
16 09/26/2014 17:55:05 -29.91, -60.14 09/26/2014 17:56:22 -30.00, -60.66 50.73 77
17 09/26/2014 18:44:28 29.89, 107.51 09/26/2014 18:47:02 30.06, 106.69 81.28 154
18 09/29/2014 04:41:58 -29.97, -51.34 09/29/2014 04:35:05 -30.16, -50.50 83.42 413
19 09/29/2014 05:31:28 29.95, 116.29 09/29/2014 05:25:52 30.04, 116.83 52.84 336
20 09/29/2014 06:20:50 -29.96, -76.06 09/29/2014 06:16:31 -29.99, -75.83 22.43 259
21 09/29/2014 07:08:27 23.14, 93.26 09/29/2014 07:05:23 23.14, 93.27 0.65 184
22 09/29/2014 07:50:33 3.20, -93.29 09/29/2014 07:48:35 3.20, -93.29 0.30 118
23 09/29/2014 08:33:31 -26.89, 79.68 09/29/2014 08:32:40 -26.92, 79.66 4.33 51
24 09/29/2014 09:22:03 29.93,-111.88 09/29/2014 09:22:28 30.01,-112.18 29.82 25
25 09/29/2014 10:11:34 -29.89, 55.73 09/29/2014 10:13:17 -30.00, 55.12 60.48 103
26 09/29/2014 11:00:56 29.93,-136.60 09/29/2014 11:03:56 30.12,-137.52 90.91 180
27 10/01/2014 20:58:26 -29.96, 64.54 10/01/2014 20:51:59 -30.10, 65.29 73.56 387
28 10/01/2014 21:47:56 29.94,-127.83 10/01/2014 21:42:47 30.04,-127.40 42.91 309
29 10/01/2014 22:37:19 -29.96, 39.82 10/01/2014 22:33:27 -29.98, 39.94 12.36 232
30 10/01/2014 23:22:38 14.81,-148.94 10/01/2014 23:19:57 14.81,-148.93 0.75 161
31 10/02/2014 00:04:41 11.72, 24.43 10/02/2014 00:03:06 11.72, 24.42 1.05 95
32 10/02/2014 00:49:34 -28.45,-164.04 10/02/2014 00:49:09 -28.49,-164.15 11.49 25
33 10/02/2014 01:38:32 29.93, 4.00 10/02/2014 01:39:24 30.00, 3.59 39.68 52
34 10/02/2014 02:28:03 -29.89, 171.61 10/02/2014 02:30:12 -30.06, 170.91 70.41 129
35 10/04/2014 12:25:32 29.98, 12.76 10/04/2014 12:18:15 30.16, 13.71 93.88 437
36 10/04/2014 13:14:55 -29.99,-179.59 10/04/2014 13:08:55 -30.10,-178.94 63.41 360
37 10/04/2014 14:04:25 29.98, -11.96 10/04/2014 13:59:43 30.05, -11.63 32.73 282
38 10/04/2014 14:53:48 -29.98, 155.69 10/04/2014 14:50:23 -29.99, 155.72 2.19 205
39 10/04/2014 15:36:29 5.30, -30.99 10/04/2014 15:34:11 5.30, -30.98 1.32 138
40 10/04/2014 16:18:33 21.16, 142.44 10/04/2014 16:17:21 21.16, 142.44 0.05 72
41 10/04/2014 17:05:38 -29.92, -47.78 10/04/2014 17:05:40 -29.95, -47.98 19.32 2
42 10/04/2014 17:55:01 29.90, 119.87 10/04/2014 17:56:20 30.00, 119.37 49.86 79
43 10/04/2014 18:44:31 -29.92, -72.50 10/04/2014 18:47:07 -30.12, -73.30 80.49 156




NCC Satellite Simultaneous Nadir Overpasses (SNOs) Prediction Service
